Location: Ash Observatory
(39.7321°N, 75.2004°W)
Time: 12:12:18
(UTC-05:00)

N. Korean satellite - Visible Passes

Search period start: 15 December 2018 00:00
Search period end: 25 December 2018 00:00
Orbit: 456 x 511 km, 97.2° (Epoch: 14 December)

Date Brightness Start Highest point End Pass type
(mag) Time Alt. Az. Time Alt. Az. Time Alt. Az.
15 Dec 9.7 05:26:06 10° NE 05:28:30 17° E 05:30:54 10° SE visible
15 Dec 6.4 17:33:21 10° SSE 17:36:47 86° WSW 17:40:14 10° NNW visible
16 Dec 6.6 06:33:56 10° N 06:37:28 57° WNW 06:41:03 10° SSW visible
16 Dec 6.8 17:09:02 10° SE 17:12:15 40° ENE 17:15:31 10° N visible
17 Dec 7.1 06:09:20 10° NNE 06:12:55 64° E 06:16:33 10° S visible
17 Dec 9.3 18:18:34 10° SW 18:21:10 20° W 18:23:46 10° NW visible
18 Dec 8.7 05:45:05 10° NE 05:48:19 29° E 05:51:32 10° SSE visible
18 Dec 7.8 17:53:12 10° S 17:56:28 42° W 17:59:46 10° NNW visible
19 Dec 9.9 05:21:26 10° ENE 05:23:36 15° E 05:25:46 10° SE visible
19 Dec 6.3 17:28:27 10° SSE 17:31:52 81° E 17:35:20 10° N visible
20 Dec 6.5 06:29:00 10° N 06:32:36 66° WNW 06:36:15 10° SSW visible
20 Dec 7.1 17:04:12 10° SE 17:07:21 35° ENE 17:10:32 10° N visible
20 Dec 10.0 18:39:52 10° WSW 18:40:58 11° W 18:42:04 10° WNW visible
21 Dec 7.4 06:04:27 10° NNE 06:08:02 55° E 06:11:39 10° S visible
21 Dec 9.1 18:13:25 10° SSW 18:16:11 23° W 18:19:01 10° NW visible
22 Dec 9.0 05:40:15 10° NE 05:43:23 26° E 05:46:32 10° SSE visible
22 Dec 7.4 17:48:11 10° S 17:51:31 50° W 17:54:54 10° NNW visible
23 Dec 10.0 05:16:48 10° ENE 05:18:39 13° E 05:20:30 10° ESE visible
23 Dec 6.4 17:23:31 10° SSE 17:26:55 69° ENE 17:30:23 10° N visible
24 Dec 6.5 06:24:01 10° N 06:27:41 77° WNW 06:31:23 10° SSW visible
24 Dec 9.9 18:34:17 10° WSW 18:35:57 13° W 18:37:39 10° WNW visible
